Change the Weather History Date:

Wednesday, December 18, 2013

  Actual Average Record
Temperature  
Mean Temperature 54 °F -  
Max Temperature 66 °F 63 °F 77 °F (2008)
Min Temperature 42 °F 48 °F 41 °F (2004)
Degree Days  
Heating Degree Days 11    
Growing Degree Days 4 (Base 50)    
Moisture  
Dew Point 41 °F    
Average Humidity 66    
Maximum Humidity 87    
Minimum Humidity 36    
Precipitation  
Precipitation 0.00 in - - ()
Sea Level Pressure  
Sea Level Pressure 30.11 in    
Wind  
Wind Speed 3 mph ()    
Max Wind Speed 8 mph    
Max Gust Speed -    
Visibility 6.0 miles    
Events      
Averages and records for this station are not official NWS values.
T = Trace of Precipitation, MM = Missing Value Source: Averaged Metar Reports

Daily Weather History Graph

Daily Weather History Graph

Search for Another Location

Airport or City:

Trip Planner

Search our weather history database for the weather conditions in past years. The results will help you decide how hot, cold, wet, or windy it might be!

Date:

Astronomy

Dec. 18, 2013 Rise Set
Actual Time 6:35 AM IST 4:38 PM IST
Civil Twilight 6:08 AM IST 5:05 PM IST
Nautical Twilight 5:37 AM IST 5:36 PM IST
Astronomical Twilight 5:07 AM IST 6:06 PM IST
Moon 5:48 PM IST (12/18) 7:04 AM IST (12/18)
Length of Visible Light 10h 57m
Length of Day
10h 03m
Full, 99% of the Moon is Illuminated
Dec 18
Full
Dec 25
Last Quarter
Jan 1
New
Jan 8
First Quarter
Jan 16
Full

Hourly Weather History & Observations

Time (IST) Temp. Windchill Dew Point Humidity Pressure Visibility Wind Dir Wind Speed Gust Speed Precip Events Conditions
12:20 AM 48.2 °F - 42.8 °F 82% 30.12 in - Variable 2.3 mph - N/A   Clear
12:50 AM 46.4 °F - 41.0 °F 81% 30.12 in - Variable 2.3 mph - N/A   Clear
1:20 AM 46.4 °F 44.3 °F 41.0 °F 81% 30.12 in - ESE 4.6 mph - N/A   Clear
1:50 AM 44.6 °F - 41.0 °F 87% 30.12 in - Variable 1.2 mph - N/A   Clear
2:00 AM 45 °F - 41 °F 82% 30.13 in 6 mi 2.3 mph - -   Scattered Clouds
2:20 AM 44.6 °F 42.2 °F 39.2 °F 81% 30.09 in - East 4.6 mph - N/A   Clear
2:50 AM 44.6 °F - 39.2 °F 81% 30.09 in - Variable 1.2 mph - N/A   Clear
3:20 AM 44.6 °F - 39.2 °F 81% 30.09 in - Variable 2.3 mph - N/A   Clear
3:50 AM 42.8 °F 40.1 °F 39.2 °F 87% 30.09 in - East 4.6 mph - N/A   Clear
4:20 AM 42.8 °F - 39.2 °F 87% 30.09 in - Variable 2.3 mph - N/A   Clear
4:50 AM 42.8 °F - 37.4 °F 81% 30.09 in - Variable 1.2 mph - N/A   Clear
5:00 AM 42 °F - 38 °F 80% 30.12 in 6 mi 1.2 mph - -  
5:20 AM 42.8 °F - 39.2 °F 87% 30.09 in - Variable 1.2 mph - N/A   Clear
5:50 AM 41.0 °F 38.0 °F 37.4 °F 87% 30.09 in - East 4.6 mph - N/A   Clear
6:20 AM 42.8 °F - 37.4 °F 81% 30.12 in - Variable 1.2 mph - N/A   Clear
6:50 AM 42.8 °F - 37.4 °F 81% 30.12 in - Variable 1.2 mph - N/A   Clear
7:20 AM 42.8 °F - 37.4 °F 81% 30.12 in - Calm Calm - N/A   Clear
7:50 AM 46.4 °F 45.2 °F 39.2 °F 76% 30.12 in - Variable 3.5 mph - N/A   Clear
8:00 AM 47 °F - 39 °F 66% 30.14 in 6 mi 3.5 mph - -  
8:20 AM 50.0 °F - 39.2 °F 66% 30.12 in - Variable 1.2 mph - N/A   Clear
8:50 AM 53.6 °F - 41.0 °F 62% 30.12 in - Variable 3.5 mph - N/A   Clear
9:20 AM 57.2 °F - 39.2 °F 51% 30.12 in - Variable 1.2 mph - N/A   Clear
9:50 AM 57.2 °F - 41.0 °F 55% 30.12 in - Variable 1.2 mph - N/A   Clear
10:20 AM 57.2 °F - 41.0 °F 55% 30.12 in - Variable 2.3 mph - N/A   Clear
10:50 AM 60.8 °F - 42.8 °F 52% 30.12 in - Variable 2.3 mph - N/A   Clear
11:00 AM 61 °F - 43 °F 40% 30.17 in 6 mi 1.2 mph - -  
11:20 AM 62.6 °F - 37.4 °F 39% 30.12 in - Variable 1.2 mph - N/A   Clear
11:50 AM 66.2 °F - 42.8 °F 43% 30.09 in - Variable 1.2 mph - N/A   Clear
12:20 PM 64.4 °F - 42.8 °F 45% 30.06 in - Variable 1.2 mph - N/A   Clear
12:50 PM 66.2 °F - 41.0 °F 40% 30.06 in - Variable 1.2 mph - N/A   Clear
1:20 PM 66.2 °F - 41.0 °F 40% 30.06 in - Variable 1.2 mph - N/A   Clear
1:50 PM 64.4 °F - 44.6 °F 49% 30.06 in - WNW 5.8 mph - N/A   Clear
2:00 PM 65 °F - 44 °F 36% 30.08 in 6 mi WNW 6.9 mph - -  
2:20 PM 64.4 °F - 44.6 °F 49% 30.06 in - WNW 6.9 mph - N/A   Clear
2:50 PM 62.6 °F - 44.6 °F 52% 30.06 in - WNW 8.1 mph - N/A   Clear
3:20 PM 62.6 °F - 44.6 °F 52% 30.09 in - WNW 8.1 mph - N/A   Clear
3:50 PM 60.8 °F - 46.4 °F 59% 30.09 in - WNW 6.9 mph - N/A   Clear
4:20 PM 59.0 °F - 44.6 °F 59% 30.09 in - WNW 6.9 mph - N/A   Clear
4:50 PM 57.2 °F - 44.6 °F 63% 30.09 in - WNW 4.6 mph - N/A   Clear
5:00 PM 58 °F - 44 °F 50% 30.11 in 6 mi WNW 4.6 mph - -  
5:20 PM 57.2 °F - 42.8 °F 59% 30.09 in - Variable 1.2 mph - N/A   Clear
5:50 PM 57.2 °F - 42.8 °F 59% 30.12 in - Variable 1.2 mph - N/A   Clear
6:20 PM 55.4 °F - 44.6 °F 67% 30.12 in - Variable 2.3 mph - N/A   Clear
6:50 PM 55.4 °F - 44.6 °F 67% 30.12 in - Variable 2.3 mph - N/A   Clear
7:20 PM 53.6 °F - 42.8 °F 67% 30.12 in - SE 4.6 mph - N/A   Clear
7:50 PM 53.6 °F - 42.8 °F 67% 30.12 in - SE 5.8 mph - N/A   Clear
8:00 PM 53 °F - 42 °F 58% 30.14 in 6 mi SE 5.8 mph - -  
8:20 PM 51.8 °F - 42.8 °F 71% 30.12 in - Variable 2.3 mph - N/A   Clear
8:50 PM 50.0 °F - 42.8 °F 76% 30.15 in - Variable 3.5 mph - N/A   Clear
9:20 PM 51.8 °F - 41.0 °F 67% 30.15 in - Variable 3.5 mph - N/A   Clear
9:50 PM 50.0 °F - 41.0 °F 71% 30.15 in - Variable 3.5 mph - N/A   Clear
10:20 PM 50.0 °F - 41.0 °F 71% 30.15 in - ESE 4.6 mph - N/A   Clear
10:50 PM 50.0 °F - 41.0 °F 71% 30.15 in - ESE 4.6 mph - N/A   Clear
11:00 PM 50 °F - 41 °F 61% 30.17 in 6 mi ESE 4.6 mph - -  
11:20 PM 50.0 °F - 41.0 °F 71% 30.15 in - ESE 4.6 mph - N/A   Clear
11:50 PM 50.0 °F - 41.0 °F 71% 30.15 in - ESE 4.6 mph - N/A   Clear